KD4PMP Weather Reports


Display with metric or nautical units.
time (UTC)temp
F
wind
direction
speed
MPH
gust
MPH
rain 1hr
in
rain 24hr
in
rain mn
in
humidity
%
barometer
mb
20260510225014 86 328 5.0 11.0 0.00 0.00 0.00 41 1014.5
20260510224014 86 341 3.0 5.0 0.00 0.00 0.00 41 1014.4
20260510223014 86 331 3.0 6.0 0.00 0.00 0.00 41 1014.5
20260510222013 86 325 4.0 9.0 0.00 0.00 0.00 40 1014.4
20260510221013 86 295 3.0 8.0 0.00 0.00 0.00 39 1014.4
20260510220012 87 300 3.0 4.0 0.00 0.00 0.00 40 1014.3
20260510215013 86 300 1.0 8.0 0.00 0.00 0.00 42 1014.4
20260510214012 86 350 3.0 9.0 0.00 0.00 0.00 42 1014.4
20260510213012 86 271 3.0 8.0 0.00 0.00 0.00 40 1014.5
20260510212011 86 161 2.0 8.0 0.00 0.00 0.00 41 1014.5
20260510211012 86 269 3.0 10.0 0.00 0.00 0.00 40 1014.7
20260510210011 86 314 5.0 7.0 0.00 0.00 0.00 39 1014.7
20260510205010 86 327 2.0 8.0 0.00 0.00 0.00 40 1014.8
20260510204010 85 312 3.0 5.0 0.00 0.00 0.00 44 1014.7
20260510203010 85 284 4.0 5.0 0.00 0.00 0.00 41 1014.7
20260510202010 85 355 1.0 8.0 0.00 0.00 0.00 43 1014.7
20260510201009 85 341 8.0 8.0 0.00 0.00 0.00 40 1014.9
20260510200009 85 360 4.0 6.0 0.00 0.00 0.00 42 1015.0
20260510195009 85 336 3.0 8.0 0.00 0.00 0.00 40 1015.0
20260510194008 86 249 2.0 8.0 0.00 0.00 0.00 39 1014.9
20260510193008 86 302 4.0 11.0 0.00 0.00 0.00 41 1015.1
20260510192008 86 219 4.0 5.0 0.00 0.00 0.00 42 1015.0
20260510191007 85 217 1.0 5.0 0.00 0.00 0.00 42 1015.0
20260510190008 84 296 0.0 11.0 0.00 0.00 0.00 41 1015.0
20260510185007 84 207 3.0 6.0 0.00 0.00 0.00 42 1015.1
20260510184007 84 231 2.0 7.0 0.00 0.00 0.00 44 1015.3
20260510183006 84 226 2.0 7.0 0.00 0.00 0.00 44 1015.4
20260510182006 83 344 2.0 9.0 0.00 0.00 0.00 42 1015.3
20260510181006 83 5 4.0 9.0 0.00 0.00 0.00 45 1015.4
20260510180006 83 291 4.0 10.0 0.00 0.00 0.00 46 1015.5
20260510175005 83 281 2.0 8.0 0.00 0.00 0.00 47 1015.7
20260510174005 83 266 1.0 7.0 0.00 0.00 0.00 45 1015.9
20260510173005 83 236 1.0 9.0 0.00 0.00 0.00 45 1015.9
20260510172004 82 232 5.0 6.0 0.00 0.00 0.00 45 1015.9
20260510171004 82 246 2.0 7.0 0.00 0.00 0.00 48 1015.9
20260510170004 81 285 3.0 8.0 0.00 0.00 0.00 49 1015.9
20260510165003 82 262 2.0 5.0 0.00 0.00 0.00 51 1015.8
20260510164004 80 5 1.0 5.0 0.00 0.00 0.00 53 1015.7
20260510163003 80 296 5.0 7.0 0.00 0.00 0.00 53 1015.9
20260510162002 81 338 5.0 6.0 0.00 0.00 0.00 50 1016.0
20260510161002 81 355 3.0 5.0 0.00 0.00 0.00 54 1015.9
20260510160002 80 265 0.0 6.0 0.00 0.00 0.00 56 1015.8
20260510155001 79 296 4.0 7.0 0.00 0.00 0.00 56 1015.8
20260510154002 78 279 1.0 7.0 0.00 0.00 0.00 59 1015.5
20260510153001 78 234 2.0 4.0 0.00 0.00 0.00 62 1015.6
20260510152001 77 217 2.0 4.0 0.00 0.00 0.00 64 1015.6
20260510151001 77 195 3.0 4.0 0.00 0.00 0.00 65 1015.7
20260510150000 76 271 2.0 4.0 0.00 0.00 0.00 68 1015.7
20260510145000 75 246 1.0 4.0 0.00 0.00 0.00 71 1015.8
20260510144000 75 298 2.0 4.0 0.00 0.00 0.00 72 1015.8
20260510142959 74 252 1.0 4.0 0.00 0.00 0.00 74 1015.8
20260510141959 73 289 0.0 6.0 0.00 0.00 0.00 78 1015.7
20260510140959 72 257 1.0 4.0 0.00 0.00 0.00 79 1015.7
20260510135958 71 285 3.0 3.0 0.00 0.00 0.00 80 1015.7
20260510134958 70 294 1.0 3.0 0.00 0.00 0.00 82 1015.8
20260510133958 69 244 1.0 5.0 0.00 0.00 0.00 84 1015.8
20260510132958 69 273 0.0 4.0 0.00 0.00 0.00 84 1015.8
20260510131957 68 262 0.0 3.0 0.00 0.00 0.00 85 1015.8
20260510130957 68 272 1.0 4.0 0.00 0.00 0.00 84 1015.8
20260510125957 68 277 0.0 2.0 0.00 0.00 0.00 85 1015.6
20260510124956 66 67 0.0 2.0 0.00 0.00 0.00 87 1015.6
20260510123956 65 259 0.0 2.0 0.00 0.00 0.00 89 1015.6
20260510122956 63 126 1.0 2.0 0.00 0.00 0.00 93 1015.4
20260510122010 60 126 0.0 0.0 0.00 0.00 0.00 95 1015.3
20260510120955 58 126 0.0 0.0 0.00 0.00 0.00 95 1015.2
20260510115955 56 126 0.0 0.0 0.00 0.00 0.00 95 1015.0
20260510115025 55 126 0.0 0.0 0.00 0.00 0.00 96 1014.8
20260510114024 54 126 0.0 0.0 0.00 0.00 0.00 95 1014.7
20260510112954 53 126 0.0 0.0 0.00 0.00 0.00 94 1014.6
20260510112024 53 126 0.0 0.0 0.00 0.00 0.00 94 1014.3
20260510111024 53 126 0.0 0.0 0.00 0.00 0.00 94 1014.1
20260510110023 53 126 0.0 0.0 0.00 0.00 0.00 94 1014.1
20260510105023 54 126 0.0 0.0 0.00 0.00 0.00 93 1013.9
20260510103952 54 126 0.0 0.0 0.00 0.00 0.00 93 1013.8
20260510103023 54 126 0.0 0.0 0.00 0.00 0.00 93 1013.7
20260510102022 54 126 0.0 0.0 0.00 0.00 0.00 93 1013.6
20260510101022 54 126 0.0 0.0 0.00 0.00 0.00 93 1013.6
20260510095952 54 126 0.0 0.0 0.00 0.00 0.00 93 1013.5
20260510095021 54 126 0.0 0.0 0.00 0.00 0.00 92 1013.5
20260510094021 54 126 0.0 0.0 0.00 0.00 0.00 92 1013.5
20260510093021 55 126 0.0 0.0 0.00 0.00 0.00 93 1013.4
20260510092036 54 126 0.0 0.0 0.00 0.00 0.00 92 1013.2
20260510091020 54 126 0.0 0.0 0.00 0.00 0.00 92 1013.2
20260510090020 54 126 0.0 0.0 0.00 0.00 0.00 91 1013.3
20260510085019 55 126 0.0 0.0 0.00 0.00 0.00 91 1013.2
20260510084019 55 126 0.0 0.0 0.00 0.00 0.00 92 1013.3
20260510083019 55 126 0.0 0.0 0.00 0.00 0.00 91 1013.2
20260510082019 55 126 0.0 0.0 0.00 0.00 0.00 92 1013.2
20260510081034 55 126 0.0 0.0 0.00 0.00 0.00 91 1013.3
20260510080018 55 126 0.0 0.0 0.00 0.00 0.00 90 1013.1
20260510075018 55 126 0.0 0.0 0.00 0.00 0.00 90 1012.8
20260510074017 55 126 0.0 0.0 0.00 0.00 0.00 90 1012.6
20260510073017 55 126 0.0 0.0 0.00 0.00 0.00 89 1012.5
20260510072017 56 126 0.0 0.0 0.00 0.00 0.00 89 1012.5
20260510071017 56 126 0.0 0.0 0.00 0.00 0.00 89 1012.5
20260510070016 56 126 0.0 2.0 0.00 0.00 0.00 90 1012.4
20260510065016 56 128 2.0 4.0 0.00 0.00 0.00 90 1012.6
20260510064015 55 281 0.0 2.0 0.00 0.00 0.00 91 1012.5
20260510063015 55 305 0.0 0.0 0.00 0.00 0.00 90 1012.4
20260510062015 55 305 0.0 0.0 0.00 0.00 0.00 89 1012.6
20260510061015 56 305 0.0 0.0 0.00 0.00 0.00 89 1012.4
20260510060015 55 305 0.0 0.0 0.00 0.00 0.00 89 1012.3
20260510055014 56 305 0.0 0.0 0.00 0.00 0.00 88 1012.4
20260510054014 56 305 0.0 0.0 0.00 0.00 0.00 87 1012.3
20260510053014 57 305 0.0 0.0 0.00 0.00 0.00 86 1012.3
20260510052014 57 305 0.0 0.0 0.00 0.00 0.00 86 1012.4
20260510051013 57 305 0.0 1.0 0.00 0.00 0.00 86 1012.3
20260510050013 58 305 0.0 0.0 0.00 0.00 0.00 85 1012.5
20260510045028 58 305 0.0 0.0 0.00 0.00 0.00 84 1012.3
20260510044013 58 305 0.0 0.0 0.00 0.00 0.00 84 1012.4
20260510043012 59 305 0.0 0.0 0.00 0.00 0.00 83 1012.5
20260510042011 59 305 0.0 0.0 0.00 0.00 0.00 83 1012.5
20260510041011 59 305 0.0 0.0 0.00 0.00 0.00 82 1012.4
20260510040011 60 305 0.0 0.0 0.00 0.00 0.00 82 1012.3
20260510035011 60 305 0.0 0.0 0.00 0.00 0.00 81 1012.3
20260510034010 60 305 0.0 0.0 0.00 0.00 0.00 80 1012.3
20260510033010 61 305 0.0 0.0 0.00 0.00 0.00 79 1012.3
20260510032010 62 305 0.0 0.0 0.00 0.00 0.00 77 1012.2
20260510031009 62 305 0.0 0.0 0.00 0.00 0.00 77 1012.1
20260510030009 63 305 0.0 0.0 0.00 0.00 0.00 76 1012.0
20260510025009 63 305 0.0 0.0 0.00 0.00 0.00 74 1011.9
20260510024009 64 305 0.0 0.0 0.00 0.00 0.00 73 1011.6
20260510023009 65 305 0.0 0.0 0.00 0.00 0.00 72 1011.6
20260510022008 65 305 0.0 0.0 0.00 0.00 0.00 70 1011.4
20260510021008 66 305 0.0 0.0 0.00 0.00 0.00 69 1011.5
20260510020008 67 305 0.0 0.0 0.00 0.00 0.00 67 1011.4
20260510015007 68 305 0.0 2.0 0.00 0.00 0.00 65 1011.1
20260510014022 69 305 0.0 0.0 0.00 0.00 0.00 64 1011.1
20260510013007 70 305 0.0 0.0 0.00 0.00 0.00 62 1010.9
20260510012006 70 305 0.0 0.0 0.00 0.00 0.00 60 1010.8
20260510011006 72 305 0.0 0.0 0.00 0.00 0.00 59 1010.6
20260510010006 73 305 0.0 0.0 0.00 0.00 0.00 57 1010.6
20260510005005 74 305 0.0 0.0 0.00 0.00 0.00 55 1010.4
20260510004021 76 305 0.0 1.0 0.00 0.00 0.00 53 1010.4
20260510003005 78 305 0.0 0.0 0.00 0.00 0.00 48 1010.4
20260510002004 79 305 0.0 1.0 0.00 0.00 0.00 46 1010.4
20260510001004 80 305 1.0 1.0 0.00 0.00 0.00 46 1010.5
20260510000004 81 305 0.0 2.0 0.00 0.00 0.00 45 1010.6
20260509235004 82 305 0.0 2.0 0.00 0.00 0.00 44 1010.2
20260509234004 82 305 1.0 3.0 0.00 0.00 0.00 43 1010.1
20260509233018 83 309 0.0 3.0 0.00 0.00 0.00 40 1010.0
20260509232003 83 306 1.0 4.0 0.00 0.00 0.00 42 1010.0
20260509231002 83 298 0.0 4.0 0.00 0.00 0.00 41 1010.0
20260509230002 83 326 1.0 4.0 0.00 0.00 0.00 38 1010.0